Wind_Speed
18 17 17 17 18 19 20 20 21 23 23 22 21 20 21 23 22 21 21 21 21 21 22 22 23 24 26 28 30 31 32 33 34 35 37 38 41 43 45 48 50 52 53 54
18 18 18 18 19 20 21 21 22 23 25 25 24 22 24 26 25 25 24 24 23 24 24 25 26 27 29 31 33 34 35 36 38 39 40 41 43 46 48 51 53 54 56 57
18 19 19 19 20 21 22 23 23 25 26 27 28 24 24 28 27 27 26 26 26 26 27 27 28 30 32 34 36 37 38 40 41 42 43 45 47 49 51 54 56 57 58 59
18 19 19 19 21 22 23 25 27 27 28 28 29 29 20 28 28 27 27 28 28 29 29 30 31 33 35 37 38 40 41 42 44 45 47 48 50 52 54 56 58 60 60 61
18 19 20 21 23 25 26 27 29 29 30 30 29 32 23 25 28 28 29 30 30 31 31 32 34 36 38 40 41 43 44 45 46 48 49 51 53 55 57 59 60 62 62 62
19 20 21 22 24 26 28 30 31 31 31 31 30 32 27 24 27 28 30 31 31 33 33 34 37 39 40 43 44 45 47 47 49 50 52 54 56 57 59 61 63 63 63 63
21 22 24 25 27 28 30 32 35 35 33 31 31 30 26 25 27 29 30 32 34 35 36 38 40 42 43 45 47 48 49 50 52 53 55 56 58 60 61 63 64 64 64 64
24 25 26 27 29 30 31 33 35 38 37 34 33 32 28 27 28 29 30 33 36 38 40 42 44 46 47 48 49 50 51 53 54 55 57 59 60 62 63 65 65 65 65 65
28 28 28 29 30 31 33 33 35 39 41 39 36 33 29 24 25 27 30 33 36 39 43 46 48 50 51 52 52 52 54 55 56 57 59 60 61 63 64 65 65 65 66 66
31 30 28 30 31 32 34 35 36 38 43 44 41 36 31 29 29 29 31 35 38 42 45 48 51 53 54 54 55 55 56 57 58 59 60 61 62 64 65 66 66 66 66 66
34 33 31 31 32 34 35 35 37 40 42 45 47 41 33 33 33 34 35 37 41 44 47 49 51 53 55 55 56 56 57 57 58 59 61 62 63 64 66 66 67 67 67 67
35 36 34 33 33 35 36 37 38 40 42 44 48 46 35 37 38 40 41 42 43 45 47 48 49 50 52 53 54 55 56 57 58 59 61 62 64 65 66 67 67 68 68 67
37 38 38 36 35 37 39 38 39 41 43 45 47 47 41 43 44 45 46 46 47 48 49 49 50 51 51 52 53 54 55 56 58 59 61 63 65 66 67 67 67 68 68 67
40 41 41 41 39 40 42 41 40 42 44 47 47 48 44 45 49 49 49 50 50 51 51 51 52 52 53 53 54 54 55 57 58 60 62 64 66 67 67 67 67 67 66 66
43 44 44 44 43 44 46 44 42 43 44 48 49 50 49 51 53 53 53 53 54 54 54 54 53 53 54 54 54 55 56 58 60 62 63 65 66 67 68 67 66 65 64 64
45 48 48 48 46 48 50 46 44 45 46 48 51 51 50 54 54 55 56 57 57 57 56 56 55 55 55 56 57 58 59 61 62 63 64 66 67 67 67 66 64 64 63 62
48 49 51 53 51 53 51 46 46 47 48 49 51 53 55 56 56 57 58 59 59 59 58 57 57 58 58 59 60 61 62 63 63 64 65 65 65 65 64 63 62 61 61 59
50 51 53 56 56 57 53 51 51 52 51 51 53 55 58 59 58 59 60 60 60 60 60 61 61 61 61 62 63 63 63 63 63 63 63 63 63 61 61 60 59 58 57 55
47 50 53 56 57 57 53 51 54 55 54 53 56 58 60 61 60 59 60 61 62 62 63 64 65 64 63 63 63 62 62 61 62 61 60 60 59 58 57 56 54 53 52 52
42 44 47 50 53 54 51 51 53 54 56 56 58 59 60 61 62 61 60 61 62 63 64 64 63 62 62 61 61 60 59 59 58 57 55 55 54 54 52 51 49 49 49 50
40 42 43 46 49 50 49 51 52 54 56 56 58 59 61 62 63 62 61 61 61 61 60 60 60 59 59 58 57 55 54 54 53 51 51 50 50 49 48 47 46 46 47 47
40 42 43 45 47 48 49 50 51 52 54 55 57 59 61 61 60 60 60 60 59 58 57 56 55 54 53 53 52 50 50 50 49 49 49 49 48 47 45 44 44 45 44 44
42 42 44 46 47 47 49 50 50 52 54 55 57 58 59 59 58 58 57 56 55 54 51 50 50 49 48 48 48 48 48 49 47 47 48 47 45 45 44 43 43 43 43 44
44 42 44 48 48 49 50 50 51 53 55 56 57 58 58 59 58 57 54 52 50 49 48 48 47 46 45 45 46 47 47 47 47 46 45 45 45 45 45 44 44 44 43 44
48 45 48 51 51 51 51 51 53 54 55 56 56 58 58 58 56 55 53 51 50 48 47 47 45 44 45 45 46 48 48 48 47 47 47 47 46 46 47 47 46 45 45 45
48 47 51 54 54 57 55 55 56 57 57 57 57 57 56 55 54 54 52 50 48 47 47 46 46 46 47 48 49 50 49 49 49 49 49 49 49 49 50 49 48 47 47 46
Wind_Direction
280 282 285 290 293 295 294 292 288 284 282 278 275 273 272 274 274 274 276 279 281 283 285 288 290 294 297 300 303 306 309 312 315 317 319 320 321 322 323 324 325 325 325 324
275 277 282 286 290 293 295 294 291 287 285 283 280 278 276 275 275 274 276 278 280 282 284 287 290 293 296 299 302 305 307 309 312 314 316 317 317 319 320 322 322 322 323 323
270 273 278 284 289 293 297 297 295 293 290 289 287 282 278 276 275 275 276 277 279 281 283 286 289 292 295 297 300 303 305 307 309 311 314 315 316 317 318 320 320 321 321 321
269 272 278 284 289 294 298 298 299 297 295 294 293 290 278 279 279 278 276 276 277 280 283 286 288 290 293 296 298 301 303 305 306 309 311 312 314 315 316 318 318 319 319 320
272 275 280 286 290 294 297 298 299 298 298 297 297 294 295 284 281 278 275 275 277 279 282 285 287 289 291 293 296 298 300 302 304 306 308 310 311 313 315 316 317 318 318 318
277 281 284 287 291 294 297 298 298 298 299 300 299 298 303 296 286 280 276 276 276 278 280 282 284 286 288 290 293 295 297 299 301 303 305 308 310 312 313 315 316 317 317 318
280 285 287 290 293 295 297 299 300 300 302 303 303 303 310 305 293 285 279 276 275 276 277 279 281 283 285 287 290 293 295 298 299 301 304 306 308 310 312 314 315 316 316 317
282 285 288 291 293 295 296 298 300 301 303 304 305 307 316 311 300 292 285 280 278 276 276 277 278 281 283 286 289 291 294 296 298 300 302 305 307 309 311 313 314 315 315 316
286 287 290 292 294 295 296 296 298 299 300 302 303 307 314 313 303 295 288 283 279 277 276 277 278 281 284 286 289 291 293 295 297 300 302 304 307 308 310 312 313 314 315 316
287 288 290 292 293 294 296 297 298 298 299 302 303 307 317 312 304 295 288 283 280 278 278 279 281 284 286 288 290 291 293 295 297 299 301 303 306 307 309 311 312 313 314 315
287 288 290 290 291 293 293 294 294 295 297 299 302 306 317 309 303 296 290 286 284 284 284 286 286 287 289 290 291 292 294 295 297 298 300 303 305 306 308 310 311 312 314 315
286 288 289 290 291 291 291 292 293 294 296 297 298 303 311 305 300 295 293 291 290 289 289 289 289 290 292 292 292 292 293 295 297 298 300 302 304 305 307 310 311 312 314 315
287 288 289 290 290 289 289 291 292 293 294 296 296 300 305 302 299 297 296 296 295 294 294 294 294 295 295 295 295 295 295 296 297 299 300 302 303 305 308 310 311 313 314 315
286 287 288 290 291 289 289 289 291 293 294 293 295 297 298 298 296 296 297 297 297 297 297 297 298 298 298 298 297 297 297 298 298 299 300 302 304 306 308 310 311 312 313 315
285 286 287 287 288 288 287 290 293 294 294 293 295 296 298 297 296 297 297 298 298 299 300 300 300 300 299 299 299 298 298 298 299 300 301 303 304 306 308 309 310 312 313 315
286 286 287 287 287 287 287 292 293 292 292 292 293 294 294 293 295 296 297 298 299 300 300 301 301 301 300 300 300 299 300 300 300 301 303 304 305 307 308 309 310 312 314 315
284 285 286 287 287 286 287 291 290 290 290 291 292 292 291 291 293 295 295 297 298 299 300 301 301 301 300 300 300 300 301 301 302 303 305 305 306 308 309 309 310 312 314 315
287 288 288 289 289 288 291 293 293 291 291 292 291 290 290 292 293 294 295 297 298 300 301 301 301 301 301 301 300 301 302 302 303 304 305 307 308 308 309 310 310 311 312 314
288 289 289 291 292 293 295 295 293 292 292 292 290 290 291 292 292 293 296 298 299 300 301 301 301 301 302 302 302 303 303 303 304 305 306 307 308 309 309 310 311 311 312 313
292 291 291 293 294 297 300 297 295 294 294 293 291 292 292 293 293 295 295 296 297 298 298 298 299 301 302 303 303 303 304 305 305 306 308 309 310 311 312 312 312 312 312 313
300 300 300 300 299 302 303 300 299 297 297 295 295 294 293 293 294 297 297 298 298 298 299 299 300 302 303 303 304 304 305 306 308 309 310 311 312 312 313 313 313 313 314 315
303 303 304 303 304 306 305 303 301 299 298 296 295 295 295 296 297 297 298 298 299 299 300 300 302 304 305 305 305 305 306 307 309 310 311 312 312 313 313 314 314 315 315 315
302 304 304 304 306 306 305 304 303 301 300 300 299 299 299 299 298 298 298 299 299 300 301 302 303 305 306 306 306 306 307 308 310 311 311 311 311 312 313 313 314 314 314 315
301 303 301 302 304 303 303 304 304 303 302 302 301 301 300 300 300 300 300 300 300 301 301 302 303 305 306 307 307 307 309 311 312 312 311 311 311 311 311 312 312 313 313 313
301 302 300 300 301 300 303 303 302 302 302 302 302 302 302 302 301 300 300 300 301 301 302 302 303 304 305 306 307 307 309 310 311 311 311 310 310 310 310 310 310 311 311 311
300 299 297 297 297 298 301 300 300 301 302 302 302 302 301 301 300 300 300 300 301 302 303 303 303 303 304 305 306 307 308 308 308 309 309 309 308 308 308 308 307 308 308 309
Height
5864 5864 5862 5861 5859 5858 5856 5854 5853 5851 5850 5849 5849 5849 5847 5845 5844 5842 5841 5839 5837 5836 5834 5832 5829 5827 5825 5822 5818 5815 5811 5806 5802 5797 5793 5788 5782 5776 5770 5764 5757 5750 5742 5735
5861 5860 5859 5857 5855 5854 5852 5851 5849 5848 5845 5844 5844 5844 5843 5841 5839 5838 5836 5835 5833 5831 5829 5827 5824 5822 5819 5816 5812 5808 5804 5799 5795 5790 5785 5780 5774 5768 5762 5755 5747 5740 5732 5724
5857 5857 5855 5854 5852 5850 5848 5846 5844 5843 5841 5839 5838 5840 5839 5836 5834 5833 5831 5829 5827 5825 5823 5821 5818 5816 5813 5809 5805 5801 5797 5792 5787 5782 5777 5772 5766 5759 5752 5745 5738 5730 5722 5714
5853 5853 5852 5850 5848 5846 5845 5842 5840 5838 5836 5834 5833 5831 5837 5831 5829 5828 5826 5823 5821 5819 5817 5814 5812 5809 5806 5802 5798 5794 5789 5784 5779 5774 5769 5763 5757 5750 5743 5736 5728 5720 5711 5703
5850 5849 5848 5846 5844 5842 5840 5838 5835 5833 5830 5830 5828 5824 5830 5827 5824 5822 5819 5817 5815 5813 5810 5808 5805 5801 5798 5794 5790 5785 5781 5776 5771 5765 5760 5754 5748 5741 5733 5725 5717 5709 5700 5691
5846 5845 5844 5842 5840 5838 5835 5833 5830 5828 5826 5825 5823 5820 5822 5820 5817 5815 5812 5810 5808 5805 5803 5800 5796 5793 5789 5785 5781 5776 5772 5767 5762 5756 5750 5744 5737 5730 5722 5714 5706 5697 5689 5680
5843 5841 5839 5838 5836 5833 5831 5827 5823 5820 5820 5819 5816 5814 5816 5813 5809 5806 5804 5802 5799 5797 5794 5791 5787 5783 5779 5775 5771 5767 5762 5757 5751 5746 5740 5733 5726 5719 5711 5703 5694 5686 5677 5668
5838 5838 5836 5833 5831 5828 5826 5822 5818 5814 5811 5811 5809 5807 5810 5806 5801 5797 5795 5792 5789 5786 5783 5780 5776 5772 5769 5765 5761 5757 5752 5746 5741 5735 5728 5722 5715 5707 5699 5691 5683 5673 5664 5655
5832 5833 5831 5828 5825 5823 5820 5817 5814 5808 5803 5802 5802 5802 5804 5800 5795 5790 5786 5782 5779 5775 5771 5768 5764 5761 5757 5754 5750 5745 5740 5735 5729 5723 5717 5710 5703 5695 5687 5679 5670 5661 5652 5642
5825 5826 5826 5823 5820 5817 5814 5811 5807 5802 5796 5793 5792 5794 5795 5791 5786 5783 5778 5772 5768 5764 5760 5756 5752 5749 5745 5742 5738 5733 5728 5722 5717 5711 5704 5698 5691 5683 5675 5666 5657 5648 5639 5629
5819 5818 5819 5817 5814 5811 5808 5805 5800 5796 5792 5787 5781 5786 5788 5781 5776 5772 5768 5763 5759 5755 5751 5747 5743 5739 5734 5730 5726 5721 5715 5710 5704 5698 5692 5686 5678 5670 5662 5654 5645 5635 5626 5616
5812 5810 5810 5810 5808 5804 5800 5797 5794 5790 5786 5780 5774 5777 5779 5773 5766 5761 5758 5754 5749 5745 5741 5737 5733 5728 5724 5719 5714 5709 5703 5698 5692 5686 5679 5673 5665 5657 5649 5641 5632 5622 5613 5603
5805 5803 5801 5801 5802 5796 5792 5789 5786 5782 5778 5773 5767 5768 5768 5761 5754 5750 5746 5743 5739 5735 5731 5726 5722 5717 5712 5707 5702 5697 5691 5685 5679 5673 5666 5659 5651 5644 5636 5627 5618 5609 5600 5590
5796 5795 5794 5792 5790 5786 5782 5781 5778 5774 5769 5764 5760 5757 5758 5750 5744 5740 5736 5731 5727 5723 5719 5715 5710 5705 5700 5695 5690 5684 5678 5672 5666 5659 5652 5645 5638 5630 5622 5614 5605 5596 5586 5577
5787 5786 5784 5782 5780 5776 5772 5771 5769 5764 5760 5754 5751 5747 5744 5737 5731 5728 5724 5719 5715 5711 5706 5702 5697 5692 5687 5682 5677 5671 5665 5658 5651 5645 5638 5631 5623 5615 5607 5599 5590 5582 5573 5564
5778 5775 5772 5771 5770 5765 5762 5763 5760 5754 5749 5744 5740 5737 5733 5725 5721 5716 5711 5706 5702 5698 5694 5689 5684 5679 5674 5669 5663 5657 5651 5644 5637 5630 5624 5616 5608 5601 5593 5585 5576 5568 5560 5551
5768 5765 5761 5758 5757 5753 5753 5755 5749 5744 5740 5735 5729 5726 5719 5714 5710 5705 5699 5694 5690 5685 5681 5676 5671 5666 5661 5655 5648 5642 5636 5629 5622 5616 5609 5601 5593 5586 5578 5570 5563 5555 5547 5539
5756 5754 5749 5745 5743 5738 5745 5741 5736 5730 5728 5724 5717 5711 5705 5701 5697 5692 5686 5681 5677 5672 5667 5662 5657 5652 5646 5640 5633 5627 5620 5614 5607 5601 5594 5586 5579 5571 5564 5556 5549 5542 5534 5527
5747 5742 5737 5733 5728 5724 5729 5729 5720 5715 5713 5711 5702 5696 5691 5686 5683 5680 5674 5668 5663 5658 5653 5647 5641 5636 5631 5624 5617 5611 5605 5598 5592 5585 5579 5572 5564 5557 5550 5543 5536 5529 5522 5515
5737 5733 5729 5723 5717 5712 5717 5712 5705 5701 5698 5694 5687 5681 5677 5671 5666 5666 5663 5656 5651 5646 5640 5634 5627 5622 5616 5609 5602 5596 5590 5583 5577 5571 5565 5558 5551 5543 5537 5530 5524 5517 5511 5503
5725 5721 5718 5712 5705 5703 5704 5698 5692 5688 5685 5678 5672 5667 5662 5657 5653 5649 5646 5642 5637 5632 5626 5619 5613 5607 5601 5594 5587 5581 5576 5570 5564 5558 5552 5545 5538 5531 5525 5519 5513 5506 5499 5492
5715 5711 5708 5702 5696 5695 5690 5685 5680 5675 5670 5665 5659 5654 5648 5644 5640 5636 5632 5627 5621 5616 5610 5604 5598 5593 5587 5580 5574 5569 5563 5557 5552 5546 5540 5533 5527 5520 5513 5507 5502 5495 5488 5481
5706 5703 5697 5692 5689 5684 5678 5672 5667 5662 5656 5651 5646 5642 5636 5631 5627 5623 5618 5613 5608 5602 5597 5591 5585 5581 5575 5568 5562 5556 5551 5546 5540 5534 5528 5522 5516 5509 5503 5497 5491 5484 5478 5471
5697 5692 5686 5681 5679 5673 5668 5661 5656 5651 5645 5639 5634 5628 5623 5618 5614 5609 5604 5599 5594 5589 5584 5579 5574 5569 5564 5557 5551 5545 5540 5534 5529 5523 5517 5511 5505 5499 5492 5486 5480 5473 5467 5460
5684 5679 5673 5669 5666 5661 5658 5651 5645 5639 5633 5627 5622 5616 5611 5606 5601 5596 5592 5587 5583 5577 5572 5567 5562 5557 5552 5547 5541 5534 5529 5523 5517 5511 5505 5499 5493 5487 5481 5475 5468 5462 5456 5449
5673 5666 5660 5656 5652 5645 5644 5638 5631 5626 5621 5615 5610 5604 5599 5594 5589 5585 5580 5575 5571 5566 5560 5556 5551 5546 5540 5535 5529 5523 5517 5511 5505 5499 5493 5487 5481 5474 5468 5462 5456 5450 5444 5437